Wetterdaten: Dienstag, 13.12.2022
Datum Zeit Temp. I. Temp. A. Boden 5 cm Feuchte I. Feuchte A. Luftdruck Regen Wind
13.12.2022 00:00 23,8 C -9,9 C -5,9 C 35 % 88 % 1006 hPa 0,0 l/m 0,0 km/h (0 Bft)
13.12.2022 00:15 23,8 C -9,9 C -6,0 C 35 % 88 % 1006 hPa 0,0 l/m 0,0 km/h (0 Bft)
13.12.2022 00:18 23,8 C -10,0 C -6,0 C 35 % 88 % 1006 hPa 0,0 l/m 0,0 km/h (0 Bft)
13.12.2022 00:21 23,8 C -10,0 C -6,1 C 35 % 88 % 1006 hPa 0,0 l/m 0,0 km/h (0 Bft)
13.12.2022 00:24 23,8 C -10,1 C -6,0 C 35 % 88 % 1006 hPa 0,0 l/m 0,0 km/h (0 Bft)
13.12.2022 00:27 23,8 C -10,1 C -6,0 C 35 % 88 % 1006 hPa 0,0 l/m 0,0 km/h (0 Bft)
13.12.2022 00:30 23,8 C -10,2 C -5,8 C 35 % 88 % 1006 hPa 0,0 l/m 0,0 km/h (0 Bft)
13.12.2022 00:33 23,8 C -10,2 C -6,2 C 35 % 88 % 1006 hPa 0,0 l/m 0,0 km/h (0 Bft)
13.12.2022 00:36 23,8 C -10,2 C -6,4 C 35 % 88 % 1006 hPa 0,0 l/m 0,0 km/h (0 Bft)
13.12.2022 00:39 23,8 C -10,2 C -6,5 C 35 % 88 % 1006 hPa 0,0 l/m 0,0 km/h (0 Bft)
13.12.2022 00:42 23,8 C -10,4 C -6,6 C 35 % 88 % 1006 hPa 0,0 l/m 0,6 km/h (0 Bft)
13.12.2022 00:45 23,8 C -10,4 C -6,3 C 35 % 88 % 1006 hPa 0,0 l/m 0,3 km/h (0 Bft)
13.12.2022 00:48 23,8 C -10,4 C -5,8 C 35 % 89 % 1006 hPa 0,0 l/m 0,6 km/h (0 Bft)
13.12.2022 00:51 23,8 C -10,4 C -5,9 C 35 % 89 % 1006 hPa 0,0 l/m 0,0 km/h (0 Bft)
13.12.2022 00:54 23,8 C -10,4 C -6,0 C 35 % 89 % 1006 hPa 0,0 l/m 0,1 km/h (0 Bft)
13.12.2022 00:57 23,8 C -10,4 C -5,8 C 35 % 89 % 1006 hPa 0,0 l/m 0,1 km/h (0 Bft)
13.12.2022 01:00 23,8 C -10,4 C -5,8 C 35 % 89 % 1006 hPa 0,0 l/m 0,2 km/h (0 Bft)
13.12.2022 01:03 23,8 C -10,4 C -5,7 C 35 % 89 % 1006 hPa 0,0 l/m 1,1 km/h (1 Bft)
13.12.2022 01:06 23,8 C -10,4 C -6,0 C 35 % 89 % 1006 hPa 0,0 l/m 0,0 km/h (0 Bft)
13.12.2022 01:09 23,8 C -10,4 C -6,2 C 35 % 89 % 1006 hPa 0,0 l/m 0,0 km/h (0 Bft)
13.12.2022 01:12 23,8 C -10,4 C -6,7 C 35 % 89 % 1006 hPa 0,0 l/m 1,4 km/h (1 Bft)
13.12.2022 01:15 23,8 C -10,4 C -6,7 C 35 % 89 % 1006 hPa 0,0 l/m 1,4 km/h (1 Bft)
13.12.2022 01:18 23,8 C -10,4 C -6,7 C 35 % 89 % 1006 hPa 0,0 l/m 0,3 km/h (0 Bft)
13.12.2022 01:21 23,9 C -10,4 C -7,3 C 35 % 89 % 1006 hPa 0,0 l/m 2,0 km/h (1 Bft)
13.12.2022 01:24 23,8 C -10,4 C -6,5 C 35 % 89 % 1006 hPa 0,0 l/m 0,6 km/h (0 Bft)
13.12.2022 01:27 23,8 C -10,4 C -5,7 C 35 % 89 % 1006 hPa 0,0 l/m 1,0 km/h (0 Bft)
13.12.2022 01:30 23,8 C -10,4 C -5,4 C 35 % 89 % 1006 hPa 0,0 l/m 0,3 km/h (0 Bft)
13.12.2022 01:33 23,8 C -10,4 C -5,6 C 35 % 89 % 1006 hPa 0,0 l/m 0,3 km/h (0 Bft)
13.12.2022 01:36 23,8 C -10,4 C -5,6 C 35 % 89 % 1006 hPa 0,0 l/m 0,0 km/h (0 Bft)
13.12.2022 01:39 23,8 C -10,5 C -5,6 C 35 % 89 % 1006 hPa 0,0 l/m 0,0 km/h (0 Bft)
13.12.2022 01:42 23,8 C -10,5 C -5,9 C 35 % 89 % 1006 hPa 0,0 l/m 0,0 km/h (0 Bft)
13.12.2022 01:45 23,8 C -10,5 C -6,5 C 35 % 89 % 1006 hPa 0,0 l/m 0,0 km/h (0 Bft)
13.12.2022 01:48 23,8 C -10,6 C -6,6 C 35 % 88 % 1006 hPa 0,0 l/m 0,0 km/h (0 Bft)
13.12.2022 01:51 23,8 C -10,6 C -6,8 C 35 % 88 % 1006 hPa 0,0 l/m 0,7 km/h (0 Bft)
13.12.2022 01:54 23,8 C -10,6 C -6,8 C 35 % 88 % 1006 hPa 0,0 l/m 0,0 km/h (0 Bft)
13.12.2022 01:57 23,8 C -10,6 C -6,5 C 35 % 88 % 1006 hPa 0,0 l/m 0,0 km/h (0 Bft)
13.12.2022 02:00 23,8 C -10,6 C -6,1 C 35 % 88 % 1006 hPa 0,0 l/m 0,0 km/h (0 Bft)
13.12.2022 02:03 23,8 C -10,7 C -5,7 C 35 % 88 % 1006 hPa 0,0 l/m 0,0 km/h (0 Bft)
13.12.2022 02:06 23,8 C -10,8 C -6,3 C 35 % 88 % 1006 hPa 0,0 l/m 0,0 km/h (0 Bft)
13.12.2022 02:09 23,8 C -10,8 C -5,8 C 35 % 88 % 1006 hPa 0,0 l/m 0,0 km/h (0 Bft)
13.12.2022 02:12 23,8 C -10,8 C -6,0 C 35 % 88 % 1006 hPa 0,0 l/m 0,0 km/h (0 Bft)
13.12.2022 02:15 23,8 C -10,8 C -5,7 C 35 % 88 % 1006 hPa 0,0 l/m 0,0 km/h (0 Bft)
13.12.2022 02:18 23,8 C -10,8 C -5,2 C 35 % 88 % 1006 hPa 0,0 l/m 0,0 km/h (0 Bft)
13.12.2022 02:21 23,8 C -10,8 C -5,2 C 35 % 88 % 1006 hPa 0,0 l/m 0,0 km/h (0 Bft)
13.12.2022 02:24 23,8 C -10,8 C -5,0 C 35 % 88 % 1006 hPa 0,0 l/m 0,0 km/h (0 Bft)
13.12.2022 02:27 23,8 C -10,8 C -4,8 C 35 % 88 % 1006 hPa 0,0 l/m 0,0 km/h (0 Bft)
13.12.2022 02:30 23,8 C -10,8 C -5,5 C 35 % 88 % 1006 hPa 0,0 l/m 0,0 km/h (0 Bft)
13.12.2022 02:33 23,8 C -10,8 C -5,7 C 35 % 89 % 1006 hPa 0,0 l/m 0,0 km/h (0 Bft)
13.12.2022 02:36 23,8 C -10,8 C -6,2 C 35 % 89 % 1006 hPa 0,0 l/m 0,0 km/h (0 Bft)
13.12.2022 02:39 23,8 C -10,8 C -6,0 C 35 % 88 % 1006 hPa 0,0 l/m 0,0 km/h (0 Bft)
13.12.2022 02:42 23,8 C -10,8 C -5,6 C 35 % 88 % 1006 hPa 0,0 l/m 0,0 km/h (0 Bft)
13.12.2022 02:45 23,8 C -10,8 C -6,2 C 35 % 88 % 1005 hPa 0,0 l/m 0,0 km/h (0 Bft)
13.12.2022 02:48 23,8 C -10,9 C -5,6 C 35 % 88 % 1005 hPa 0,0 l/m 0,0 km/h (0 Bft)
13.12.2022 02:51 23,8 C -10,9 C -5,5 C 35 % 88 % 1005 hPa 0,0 l/m 0,0 km/h (0 Bft)
13.12.2022 02:54 23,8 C -10,9 C -5,3 C 35 % 89 % 1005 hPa 0,0 l/m 0,0 km/h (0 Bft)
13.12.2022 02:57 23,8 C -10,9 C -5,3 C 35 % 89 % 1005 hPa 0,0 l/m 0,0 km/h (0 Bft)
13.12.2022 03:00 23,7 C -10,9 C -4,6 C 35 % 89 % 1005 hPa 0,0 l/m 0,0 km/h (0 Bft)
13.12.2022 03:03 23,8 C -10,9 C -4,5 C 35 % 89 % 1005 hPa 0,0 l/m 0,0 km/h (0 Bft)
13.12.2022 03:06 23,8 C -11,1 C -5,9 C 35 % 89 % 1005 hPa 0,0 l/m 0,0 km/h (0 Bft)
13.12.2022 03:09 23,8 C -11,1 C -5,9 C 35 % 89 % 1005 hPa 0,0 l/m 0,0 km/h (0 Bft)
13.12.2022 03:12 23,7 C -11,2 C -6,1 C 35 % 89 % 1005 hPa 0,0 l/m 0,0 km/h (0 Bft)
13.12.2022 03:15 23,7 C -11,2 C -6,1 C 35 % 89 % 1005 hPa 0,0 l/m 0,0 km/h (0 Bft)
13.12.2022 03:18 23,7 C -11,2 C -5,9 C 35 % 89 % 1005 hPa 0,0 l/m 0,0 km/h (0 Bft)
13.12.2022 03:21 23,7 C -11,3 C -6,0 C 35 % 89 % 1005 hPa 0,0 l/m 0,0 km/h (0 Bft)
13.12.2022 03:24 23,7 C -11,3 C -6,1 C 35 % 89 % 1005 hPa 0,0 l/m 0,0 km/h (0 Bft)
13.12.2022 03:27 23,7 C -11,4 C -6,0 C 35 % 89 % 1005 hPa 0,0 l/m 0,0 km/h (0 Bft)
13.12.2022 03:30 23,7 C -11,4 C -6,0 C 35 % 89 % 1005 hPa 0,0 l/m 0,0 km/h (0 Bft)
13.12.2022 03:33 23,7 C -11,4 C -5,9 C 35 % 89 % 1005 hPa 0,0 l/m 0,0 km/h (0 Bft)
13.12.2022 03:36 23,7 C -11,4 C -5,7 C 35 % 89 % 1005 hPa 0,0 l/m 0,0 km/h (0 Bft)
13.12.2022 03:39 23,7 C -11,4 C -5,9 C 35 % 89 % 1005 hPa 0,0 l/m 0,0 km/h (0 Bft)
13.12.2022 03:42 23,7 C -11,5 C -6,3 C 35 % 89 % 1005 hPa 0,0 l/m 0,0 km/h (0 Bft)
13.12.2022 03:45 23,7 C -11,5 C -6,3 C 35 % 89 % 1005 hPa 0,0 l/m 0,0 km/h (0 Bft)
13.12.2022 03:48 23,7 C -11,6 C -6,3 C 35 % 89 % 1005 hPa 0,0 l/m 0,0 km/h (0 Bft)
13.12.2022 03:51 23,7 C -11,6 C -6,3 C 35 % 89 % 1005 hPa 0,0 l/m 0,0 km/h (0 Bft)
13.12.2022 03:54 23,7 C -11,6 C -5,6 C 35 % 89 % 1005 hPa 0,0 l/m 0,0 km/h (0 Bft)
13.12.2022 03:57 23,7 C -11,6 C -5,8 C 35 % 89 % 1005 hPa 0,0 l/m 0,0 km/h (0 Bft)
13.12.2022 04:00 23,7 C -11,6 C -6,0 C 35 % 89 % 1005 hPa 0,0 l/m 0,0 km/h (0 Bft)
13.12.2022 04:03 23,7 C -11,6 C -6,0 C 35 % 89 % 1005 hPa 0,0 l/m 0,0 km/h (0 Bft)
13.12.2022 04:06 23,7 C -11,7 C -5,5 C 35 % 89 % 1005 hPa 0,0 l/m 0,0 km/h (0 Bft)
13.12.2022 04:09 23,7 C -11,7 C -6,4 C 35 % 89 % 1005 hPa 0,0 l/m 0,0 km/h (0 Bft)
13.12.2022 04:12 23,7 C -11,7 C -5,8 C 35 % 89 % 1005 hPa 0,0 l/m 0,0 km/h (0 Bft)
13.12.2022 04:15 23,7 C -11,6 C -5,8 C 35 % 89 % 1005 hPa 0,0 l/m 0,0 km/h (0 Bft)
13.12.2022 04:18 23,7 C -11,6 C -5,3 C 35 % 89 % 1005 hPa 0,0 l/m 0,0 km/h (0 Bft)
13.12.2022 04:21 23,7 C -11,5 C -5,6 C 35 % 89 % 1005 hPa 0,0 l/m 0,0 km/h (0 Bft)
13.12.2022 04:24 23,6 C -11,4 C -5,6 C 35 % 89 % 1005 hPa 0,0 l/m 0,0 km/h (0 Bft)
13.12.2022 04:27 23,6 C -11,3 C -5,5 C 35 % 89 % 1005 hPa 0,0 l/m 0,0 km/h (0 Bft)
13.12.2022 04:30 23,6 C -11,3 C -5,5 C 35 % 89 % 1005 hPa 0,0 l/m 0,0 km/h (0 Bft)
13.12.2022 04:33 23,6 C -11,3 C -5,2 C 35 % 89 % 1005 hPa 0,0 l/m 0,0 km/h (0 Bft)
13.12.2022 04:36 23,6 C -11,2 C -5,4 C 35 % 89 % 1005 hPa 0,0 l/m 0,0 km/h (0 Bft)
13.12.2022 04:39 23,6 C -11,1 C -4,8 C 35 % 89 % 1005 hPa 0,0 l/m 0,0 km/h (0 Bft)
13.12.2022 04:42 23,6 C -11,1 C -4,8 C 35 % 89 % 1005 hPa 0,0 l/m 0,0 km/h (0 Bft)
13.12.2022 04:45 23,6 C -11,0 C -5,4 C 35 % 89 % 1005 hPa 0,0 l/m 0,0 km/h (0 Bft)
13.12.2022 04:48 23,6 C -11,1 C -5,6 C 35 % 89 % 1005 hPa 0,0 l/m 0,0 km/h (0 Bft)
13.12.2022 04:51 23,6 C -11,1 C -5,3 C 35 % 89 % 1005 hPa 0,0 l/m 0,0 km/h (0 Bft)
13.12.2022 04:54 23,6 C -11,2 C -5,1 C 35 % 89 % 1005 hPa 0,0 l/m 0,0 km/h (0 Bft)
13.12.2022 04:57 23,6 C -11,3 C -5,6 C 35 % 89 % 1005 hPa 0,0 l/m 0,0 km/h (0 Bft)
13.12.2022 05:00 23,6 C -11,4 C -5,9 C 35 % 89 % 1005 hPa 0,0 l/m 0,0 km/h (0 Bft)
13.12.2022 05:03 23,6 C -11,4 C -5,7 C 35 % 89 % 1004 hPa 0,0 l/m 0,0 km/h (0 Bft)
13.12.2022 05:06 23,6 C -11,5 C -6,0 C 35 % 89 % 1004 hPa 0,0 l/m 0,0 km/h (0 Bft)
13.12.2022 05:09 23,6 C -11,5 C -6,0 C 35 % 89 % 1004 hPa 0,0 l/m 0,0 km/h (0 Bft)
13.12.2022 05:12 23,6 C -11,6 C -5,8 C 35 % 89 % 1004 hPa 0,0 l/m 0,0 km/h (0 Bft)
13.12.2022 05:15 23,6 C -11,6 C -5,5 C 35 % 89 % 1004 hPa 0,0 l/m 0,0 km/h (0 Bft)
13.12.2022 05:18 23,6 C -11,6 C -6,1 C 35 % 89 % 1004 hPa 0,0 l/m 0,0 km/h (0 Bft)
13.12.2022 05:21 23,6 C -11,6 C -5,9 C 35 % 89 % 1004 hPa 0,0 l/m 0,0 km/h (0 Bft)
13.12.2022 05:24 23,6 C -11,6 C -6,6 C 35 % 89 % 1004 hPa 0,0 l/m 0,0 km/h (0 Bft)
13.12.2022 05:27 23,6 C -11,7 C -6,6 C 35 % 89 % 1004 hPa 0,0 l/m 0,0 km/h (0 Bft)
13.12.2022 05:30 23,6 C -11,8 C -6,6 C 35 % 89 % 1004 hPa 0,0 l/m 0,0 km/h (0 Bft)
13.12.2022 05:33 23,6 C -11,9 C -6,0 C 35 % 88 % 1004 hPa 0,0 l/m 0,0 km/h (0 Bft)
13.12.2022 05:36 23,6 C -11,9 C -5,9 C 35 % 88 % 1004 hPa 0,0 l/m 0,0 km/h (0 Bft)
13.12.2022 05:39 23,6 C -12,0 C -5,9 C 35 % 88 % 1004 hPa 0,0 l/m 0,0 km/h (0 Bft)
13.12.2022 05:42 23,6 C -12,0 C -6,0 C 35 % 88 % 1004 hPa 0,0 l/m 0,0 km/h (0 Bft)
13.12.2022 05:45 23,6 C -12,0 C -5,6 C 35 % 88 % 1004 hPa 0,0 l/m 0,0 km/h (0 Bft)
13.12.2022 05:48 23,6 C -12,0 C -5,8 C 35 % 88 % 1004 hPa 0,0 l/m 0,0 km/h (0 Bft)
13.12.2022 05:51 23,6 C -12,0 C -5,9 C 35 % 88 % 1004 hPa 0,0 l/m 0,0 km/h (0 Bft)
13.12.2022 05:54 23,6 C -12,1 C -5,6 C 35 % 88 % 1004 hPa 0,0 l/m 0,0 km/h (0 Bft)
13.12.2022 05:57 23,6 C -12,2 C -5,8 C 35 % 88 % 1004 hPa 0,0 l/m 0,0 km/h (0 Bft)
13.12.2022 06:00 23,6 C -12,3 C -6,3 C 35 % 88 % 1004 hPa 0,0 l/m 0,0 km/h (0 Bft)
13.12.2022 06:03 23,6 C -12,3 C -6,3 C 35 % 88 % 1004 hPa 0,0 l/m 0,2 km/h (0 Bft)
13.12.2022 06:06 23,6 C -12,3 C -6,0 C 35 % 88 % 1004 hPa 0,0 l/m 0,0 km/h (0 Bft)
13.12.2022 06:09 23,6 C -12,3 C -5,8 C 35 % 88 % 1004 hPa 0,0 l/m 0,0 km/h (0 Bft)
13.12.2022 06:12 23,6 C -12,4 C -5,8 C 35 % 88 % 1004 hPa 0,0 l/m 0,0 km/h (0 Bft)
13.12.2022 06:15 23,6 C -12,3 C -6,0 C 35 % 88 % 1004 hPa 0,0 l/m 0,0 km/h (0 Bft)
13.12.2022 06:18 23,6 C -12,4 C -6,0 C 35 % 88 % 1004 hPa 0,0 l/m 0,0 km/h (0 Bft)
13.12.2022 06:21 23,6 C -12,4 C -6,3 C 35 % 88 % 1004 hPa 0,0 l/m 0,0 km/h (0 Bft)
13.12.2022 06:24 23,6 C -12,3 C -5,9 C 35 % 88 % 1004 hPa 0,0 l/m 0,0 km/h (0 Bft)
13.12.2022 06:27 23,6 C -12,2 C -5,4 C 35 % 89 % 1004 hPa 0,0 l/m 0,1 km/h (0 Bft)
13.12.2022 06:30 23,6 C -12,0 C -5,2 C 35 % 89 % 1004 hPa 0,0 l/m 0,0 km/h (0 Bft)
13.12.2022 06:33 23,6 C -11,9 C -5,0 C 35 % 89 % 1004 hPa 0,0 l/m 0,0 km/h (0 Bft)
13.12.2022 06:36 23,6 C -11,7 C -6,2 C 35 % 89 % 1004 hPa 0,0 l/m 0,0 km/h (0 Bft)
13.12.2022 06:39 23,6 C -11,6 C -6,2 C 35 % 89 % 1004 hPa 0,0 l/m 0,0 km/h (0 Bft)
13.12.2022 06:42 23,6 C -11,5 C -6,2 C 35 % 89 % 1004 hPa 0,0 l/m 0,0 km/h (0 Bft)
13.12.2022 06:45 23,6 C -11,4 C -5,9 C 35 % 89 % 1004 hPa 0,0 l/m 0,0 km/h (0 Bft)
13.12.2022 06:48 23,6 C -11,3 C -5,3 C 35 % 89 % 1004 hPa 0,0 l/m 0,0 km/h (0 Bft)
13.12.2022 06:51 23,6 C -11,3 C -5,1 C 35 % 89 % 1004 hPa 0,0 l/m 0,0 km/h (0 Bft)
13.12.2022 06:54 23,6 C -11,0 C -5,1 C 35 % 88 % 1004 hPa 0,0 l/m 0,0 km/h (0 Bft)
13.12.2022 06:57 23,6 C -10,8 C -4,5 C 35 % 89 % 1004 hPa 0,0 l/m 0,0 km/h (0 Bft)
13.12.2022 07:00 23,6 C -10,7 C -4,4 C 35 % 89 % 1004 hPa 0,0 l/m 0,0 km/h (0 Bft)
13.12.2022 07:03 23,6 C -10,6 C -4,4 C 35 % 89 % 1004 hPa 0,0 l/m 0,0 km/h (0 Bft)
13.12.2022 07:06 23,6 C -10,6 C -4,9 C 35 % 89 % 1004 hPa 0,0 l/m 0,0 km/h (0 Bft)
13.12.2022 07:09 23,6 C -10,6 C -5,2 C 35 % 89 % 1004 hPa 0,0 l/m 0,0 km/h (0 Bft)
13.12.2022 07:12 23,6 C -10,6 C -5,2 C 35 % 88 % 1004 hPa 0,0 l/m 0,0 km/h (0 Bft)
13.12.2022 07:15 23,6 C -10,6 C -5,3 C 35 % 89 % 1004 hPa 0,0 l/m 0,0 km/h (0 Bft)
13.12.2022 07:18 23,5 C -10,6 C -5,2 C 35 % 88 % 1004 hPa 0,0 l/m 0,0 km/h (0 Bft)
13.12.2022 07:21 23,5 C -10,5 C -5,2 C 35 % 89 % 1004 hPa 0,0 l/m 0,0 km/h (0 Bft)
13.12.2022 07:24 23,5 C -10,4 C -5,3 C 35 % 89 % 1004 hPa 0,0 l/m 0,0 km/h (0 Bft)
13.12.2022 07:27 23,5 C -10,4 C -4,9 C 35 % 89 % 1004 hPa 0,0 l/m 0,0 km/h (0 Bft)
13.12.2022 07:30 23,5 C -10,1 C -4,7 C 35 % 89 % 1004 hPa 0,0 l/m 0,0 km/h (0 Bft)
13.12.2022 07:33 23,6 C -10,0 C -4,4 C 35 % 89 % 1004 hPa 0,0 l/m 0,0 km/h (0 Bft)
13.12.2022 07:36 23,5 C -10,0 C -4,4 C 35 % 89 % 1004 hPa 0,0 l/m 0,0 km/h (0 Bft)
13.12.2022 07:39 23,5 C -9,9 C -4,4 C 35 % 89 % 1004 hPa 0,0 l/m 0,0 km/h (0 Bft)
13.12.2022 07:42 23,5 C -9,9 C -4,3 C 35 % 89 % 1004 hPa 0,0 l/m 0,0 km/h (0 Bft)
13.12.2022 07:45 23,5 C -9,9 C -4,3 C 35 % 89 % 1004 hPa 0,0 l/m 0,0 km/h (0 Bft)
13.12.2022 07:48 23,5 C -9,9 C -4,3 C 35 % 89 % 1004 hPa 0,0 l/m 1,9 km/h (1 Bft)
13.12.2022 07:51 23,5 C -9,9 C -4,3 C 35 % 89 % 1004 hPa 0,0 l/m 1,9 km/h (1 Bft)
13.12.2022 07:54 23,5 C -9,9 C -4,2 C 35 % 89 % 1004 hPa 0,0 l/m 0,0 km/h (0 Bft)
13.12.2022 07:57 23,5 C -9,9 C -4,3 C 35 % 89 % 1004 hPa 0,0 l/m 0,0 km/h (0 Bft)
13.12.2022 08:00 23,5 C -9,9 C -4,3 C 35 % 89 % 1004 hPa 0,0 l/m 0,0 km/h (0 Bft)
13.12.2022 08:03 23,5 C -10,0 C -4,9 C 35 % 89 % 1004 hPa 0,0 l/m 0,0 km/h (0 Bft)
13.12.2022 08:06 23,5 C -10,1 C -5,3 C 35 % 89 % 1004 hPa 0,0 l/m 0,0 km/h (0 Bft)
13.12.2022 08:09 23,5 C -10,0 C -5,0 C 35 % 89 % 1004 hPa 0,0 l/m 0,0 km/h (0 Bft)
13.12.2022 08:12 23,5 C -10,0 C -4,5 C 35 % 89 % 1005 hPa 0,0 l/m 0,0 km/h (0 Bft)
13.12.2022 08:15 23,5 C -10,0 C -4,8 C 35 % 89 % 1005 hPa 0,0 l/m 0,0 km/h (0 Bft)
13.12.2022 08:18 23,5 C -10,0 C -4,6 C 35 % 89 % 1005 hPa 0,0 l/m 0,0 km/h (0 Bft)
13.12.2022 08:21 23,6 C -10,0 C -4,6 C 35 % 89 % 1005 hPa 0,0 l/m 0,0 km/h (0 Bft)
13.12.2022 08:24 23,4 C -10,1 C -5,0 C 35 % 89 % 1004 hPa 0,0 l/m 0,0 km/h (0 Bft)
13.12.2022 08:27 23,5 C -10,2 C -5,0 C 35 % 89 % 1004 hPa 0,0 l/m 0,0 km/h (0 Bft)
13.12.2022 08:30 23,5 C -10,2 C -5,1 C 35 % 89 % 1004 hPa 0,0 l/m 0,0 km/h (0 Bft)
13.12.2022 08:33 23,5 C -10,2 C -4,7 C 35 % 89 % 1004 hPa 0,0 l/m 0,0 km/h (0 Bft)
13.12.2022 08:36 23,4 C -10,2 C -4,5 C 35 % 89 % 1004 hPa 0,0 l/m 0,0 km/h (0 Bft)
13.12.2022 08:39 23,4 C -10,2 C -4,9 C 35 % 89 % 1004 hPa 0,0 l/m 0,0 km/h (0 Bft)
13.12.2022 08:42 23,4 C -10,2 C -4,6 C 35 % 89 % 1004 hPa 0,0 l/m 0,2 km/h (0 Bft)
13.12.2022 08:45 23,4 C -10,2 C -4,5 C 35 % 89 % 1004 hPa 0,0 l/m 0,0 km/h (0 Bft)
13.12.2022 08:48 23,4 C -10,1 C -4,5 C 35 % 89 % 1004 hPa 0,0 l/m 0,0 km/h (0 Bft)
13.12.2022 08:51 23,4 C -10,2 C -4,9 C 35 % 89 % 1004 hPa 0,0 l/m 0,0 km/h (0 Bft)
13.12.2022 08:54 23,5 C -10,1 C -4,5 C 35 % 89 % 1004 hPa 0,0 l/m 0,0 km/h (0 Bft)
13.12.2022 08:57 23,5 C -10,1 C -4,5 C 35 % 89 % 1004 hPa 0,0 l/m 0,0 km/h (0 Bft)
13.12.2022 09:00 23,5 C -10,0 C -4,7 C 35 % 89 % 1004 hPa 0,0 l/m 0,0 km/h (0 Bft)
13.12.2022 09:03 23,4 C -10,0 C -4,8 C 35 % 89 % 1004 hPa 0,0 l/m 0,0 km/h (0 Bft)
13.12.2022 09:06 23,3 C -9,9 C -4,4 C 34 % 89 % 1004 hPa 0,0 l/m 0,0 km/h (0 Bft)
13.12.2022 09:09 23,2 C -9,9 C -4,4 C 34 % 89 % 1004 hPa 0,0 l/m 0,0 km/h (0 Bft)
13.12.2022 09:12 23,2 C -9,7 C -4,4 C 34 % 89 % 1004 hPa 0,0 l/m 0,0 km/h (0 Bft)
13.12.2022 09:15 23,2 C -9,5 C -4,3 C 34 % 89 % 1004 hPa 0,0 l/m 0,0 km/h (0 Bft)
13.12.2022 09:18 23,2 C -9,5 C -4,5 C 33 % 89 % 1004 hPa 0,0 l/m 0,0 km/h (0 Bft)
13.12.2022 09:21 23,2 C -9,5 C -4,6 C 34 % 89 % 1004 hPa 0,0 l/m 0,1 km/h (0 Bft)
13.12.2022 09:24 23,2 C -9,5 C -4,5 C 33 % 89 % 1004 hPa 0,0 l/m 0,3 km/h (0 Bft)
13.12.2022 09:27 23,2 C -9,4 C -4,5 C 33 % 89 % 1004 hPa 0,0 l/m 0,0 km/h (0 Bft)
13.12.2022 09:30 23,2 C -9,4 C -4,5 C 33 % 89 % 1004 hPa 0,0 l/m 0,3 km/h (0 Bft)
13.12.2022 09:33 23,2 C -9,3 C -4,4 C 33 % 89 % 1004 hPa 0,0 l/m 0,2 km/h (0 Bft)
13.12.2022 09:36 23,2 C -9,3 C -4,5 C 33 % 89 % 1004 hPa 0,0 l/m 0,3 km/h (0 Bft)
13.12.2022 09:39 23,2 C -9,2 C -4,5 C 33 % 89 % 1004 hPa 0,0 l/m 0,0 km/h (0 Bft)
13.12.2022 09:42 23,2 C -9,1 C -4,8 C 33 % 89 % 1004 hPa 0,0 l/m 0,0 km/h (0 Bft)
13.12.2022 09:45 23,2 C -9,1 C -5,4 C 33 % 89 % 1004 hPa 0,0 l/m 0,0 km/h (0 Bft)
13.12.2022 09:48 23,3 C -9,1 C -5,0 C 34 % 89 % 1004 hPa 0,0 l/m 0,0 km/h (0 Bft)
13.12.2022 09:51 23,3 C -9,0 C -5,0 C 34 % 89 % 1004 hPa 0,0 l/m 0,0 km/h (0 Bft)
13.12.2022 09:54 23,3 C -8,8 C -5,4 C 34 % 89 % 1004 hPa 0,0 l/m 0,0 km/h (0 Bft)
13.12.2022 09:57 23,3 C -8,7 C -6,2 C 34 % 89 % 1005 hPa 0,0 l/m 0,0 km/h (0 Bft)
13.12.2022 10:00 23,4 C -8,7 C -6,7 C 34 % 89 % 1004 hPa 0,0 l/m 0,0 km/h (0 Bft)
13.12.2022 10:03 23,4 C -8,6 C -6,2 C 34 % 88 % 1004 hPa 0,0 l/m 0,0 km/h (0 Bft)
13.12.2022 10:06 23,4 C -8,6 C -6,0 C 34 % 88 % 1004 hPa 0,0 l/m 0,0 km/h (0 Bft)
13.12.2022 10:09 23,4 C -8,5 C -5,8 C 34 % 88 % 1004 hPa 0,0 l/m 0,1 km/h (0 Bft)
13.12.2022 10:12 23,4 C -8,4 C -5,1 C 34 % 88 % 1004 hPa 0,0 l/m 3,0 km/h (1 Bft)
13.12.2022 10:15 23,4 C -8,4 C -4,9 C 34 % 88 % 1004 hPa 0,0 l/m 3,7 km/h (1 Bft)
13.12.2022 10:18 23,4 C -8,3 C -4,8 C 34 % 88 % 1004 hPa 0,0 l/m 2,4 km/h (1 Bft)
13.12.2022 10:21 23,4 C -8,3 C -4,8 C 34 % 88 % 1004 hPa 0,0 l/m 2,4 km/h (1 Bft)
13.12.2022 10:24 23,4 C -8,2 C -4,7 C 35 % 88 % 1004 hPa 0,0 l/m 0,4 km/h (0 Bft)
13.12.2022 10:27 23,4 C -8,1 C -4,8 C 35 % 88 % 1004 hPa 0,0 l/m 0,2 km/h (0 Bft)
13.12.2022 10:30 23,5 C -7,9 C -4,7 C 34 % 88 % 1004 hPa 0,0 l/m 0,5 km/h (0 Bft)
13.12.2022 10:33 23,5 C -7,9 C -4,7 C 34 % 87 % 1004 hPa 0,0 l/m 0,1 km/h (0 Bft)
13.12.2022 10:36 23,5 C -7,5 C -4,8 C 34 % 87 % 1004 hPa 0,0 l/m 0,0 km/h (0 Bft)
13.12.2022 10:39 23,6 C -7,5 C -4,7 C 34 % 87 % 1004 hPa 0,0 l/m 0,4 km/h (0 Bft)
13.12.2022 10:42 23,7 C -7,5 C -4,7 C 34 % 87 % 1004 hPa 0,0 l/m 0,6 km/h (0 Bft)
13.12.2022 10:45 23,7 C -7,2 C -4,7 C 34 % 86 % 1004 hPa 0,0 l/m 0,6 km/h (0 Bft)
13.12.2022 10:48 23,8 C -7,1 C -4,7 C 34 % 86 % 1004 hPa 0,0 l/m 0,4 km/h (0 Bft)
13.12.2022 10:51 23,9 C -7,1 C -4,8 C 34 % 86 % 1004 hPa 0,0 l/m 0,7 km/h (0 Bft)
13.12.2022 10:54 24,0 C -6,9 C -4,9 C 34 % 86 % 1004 hPa 0,0 l/m 0,5 km/h (0 Bft)
13.12.2022 10:57 24,0 C -6,7 C -4,8 C 34 % 86 % 1004 hPa 0,0 l/m 0,8 km/h (0 Bft)
13.12.2022 11:00 23,9 C -6,7 C -4,8 C 34 % 85 % 1004 hPa 0,0 l/m 0,7 km/h (0 Bft)
13.12.2022 11:03 23,8 C -6,7 C -4,9 C 33 % 85 % 1004 hPa 0,0 l/m 1,8 km/h (1 Bft)
13.12.2022 11:06 23,7 C -6,7 C -4,9 C 33 % 85 % 1004 hPa 0,0 l/m 0,6 km/h (0 Bft)
13.12.2022 11:09 23,7 C -6,7 C -5,0 C 33 % 84 % 1004 hPa 0,0 l/m 1,5 km/h (1 Bft)
13.12.2022 11:12 23,6 C -6,5 C -5,0 C 32 % 85 % 1004 hPa 0,0 l/m 1,2 km/h (1 Bft)
13.12.2022 11:15 23,6 C -6,3 C -5,0 C 32 % 85 % 1004 hPa 0,0 l/m 4,3 km/h (1 Bft)
13.12.2022 11:18 23,5 C -6,1 C -5,0 C 31 % 85 % 1004 hPa 0,0 l/m 4,9 km/h (1 Bft)
13.12.2022 11:21 23,5 C -5,9 C -5,3 C 31 % 84 % 1004 hPa 0,0 l/m 3,5 km/h (1 Bft)
13.12.2022 11:24 23,4 C -5,8 C -5,4 C 31 % 84 % 1004 hPa 0,0 l/m 5,6 km/h (1 Bft)
13.12.2022 11:27 23,4 C -5,6 C -5,5 C 31 % 84 % 1004 hPa 0,0 l/m 4,5 km/h (1 Bft)
13.12.2022 11:30 23,4 C -5,5 C -5,6 C 31 % 84 % 1004 hPa 0,0 l/m 5,9 km/h (2 Bft)
13.12.2022 11:33 23,5 C -5,5 C -5,7 C 31 % 84 % 1004 hPa 0,0 l/m 4,7 km/h (1 Bft)
13.12.2022 11:36 23,6 C -5,0 C -6,0 C 31 % 83 % 1004 hPa 0,0 l/m 4,7 km/h (1 Bft)
13.12.2022 11:39 23,7 C -4,9 C -6,1 C 31 % 83 % 1004 hPa 0,0 l/m 5,3 km/h (1 Bft)
13.12.2022 11:42 23,8 C -4,8 C -6,2 C 32 % 83 % 1004 hPa 0,0 l/m 4,3 km/h (1 Bft)
13.12.2022 11:45 23,8 C -4,8 C -6,2 C 32 % 82 % 1004 hPa 0,0 l/m 5,1 km/h (1 Bft)
13.12.2022 11:48 23,7 C -4,7 C -6,5 C 31 % 81 % 1004 hPa 0,0 l/m 4,9 km/h (1 Bft)
13.12.2022 11:51 23,6 C -4,6 C -6,4 C 30 % 81 % 1004 hPa 0,0 l/m 7,2 km/h (2 Bft)
13.12.2022 11:54 23,5 C -4,5 C -6,3 C 30 % 81 % 1004 hPa 0,0 l/m 5,0 km/h (1 Bft)
13.12.2022 11:57 23,6 C -4,6 C -6,2 C 31 % 80 % 1004 hPa 0,0 l/m 6,1 km/h (2 Bft)
13.12.2022 12:00 23,7 C -4,6 C -6,1 C 31 % 80 % 1004 hPa 0,0 l/m 3,2 km/h (1 Bft)
13.12.2022 12:03 23,8 C -4,5 C -6,4 C 31 % 81 % 1003 hPa 0,0 l/m 5,2 km/h (1 Bft)
13.12.2022 12:06 24,0 C -4,2 C -6,5 C 31 % 81 % 1003 hPa 0,0 l/m 4,9 km/h (1 Bft)
13.12.2022 12:09 24,1 C -4,1 C -6,5 C 31 % 80 % 1003 hPa 0,0 l/m 5,1 km/h (1 Bft)
13.12.2022 12:12 24,1 C -3,9 C -6,7 C 31 % 80 % 1003 hPa 0,0 l/m 4,6 km/h (1 Bft)
13.12.2022 12:15 24,2 C -3,8 C -6,7 C 31 % 79 % 1003 hPa 0,0 l/m 5,7 km/h (1 Bft)
13.12.2022 12:18 24,2 C -3,8 C -6,8 C 31 % 78 % 1003 hPa 0,0 l/m 4,8 km/h (1 Bft)
13.12.2022 12:21 24,4 C -3,8 C -7,0 C 31 % 78 % 1003 hPa 0,0 l/m 3,1 km/h (1 Bft)
13.12.2022 12:24 24,4 C -3,8 C -7,4 C 31 % 78 % 1003 hPa 0,0 l/m 0,4 km/h (0 Bft)
13.12.2022 12:27 24,4 C -3,8 C -7,1 C 31 % 76 % 1003 hPa 0,0 l/m 0,9 km/h (0 Bft)
13.12.2022 12:30 24,4 C -3,8 C -7,3 C 32 % 77 % 1003 hPa 0,0 l/m 2,4 km/h (1 Bft)
13.12.2022 12:33 24,4 C -3,6 C -7,1 C 32 % 77 % 1003 hPa 0,0 l/m 3,6 km/h (1 Bft)
13.12.2022 12:36 24,4 C -3,4 C -7,0 C 32 % 76 % 1003 hPa 0,0 l/m 0,9 km/h (0 Bft)
13.12.2022 12:39 24,4 C -3,4 C -6,9 C 32 % 76 % 1003 hPa 0,0 l/m 0,9 km/h (0 Bft)
13.12.2022 12:42 24,4 C -3,4 C -6,8 C 32 % 76 % 1003 hPa 0,0 l/m 4,0 km/h (1 Bft)
13.12.2022 12:45 24,4 C -3,4 C -6,9 C 33 % 76 % 1003 hPa 0,0 l/m 3,9 km/h (1 Bft)
13.12.2022 12:48 24,4 C -3,4 C -7,0 C 33 % 76 % 1003 hPa 0,0 l/m 4,2 km/h (1 Bft)
13.12.2022 12:51 24,4 C -3,4 C -7,0 C 33 % 76 % 1003 hPa 0,0 l/m 4,2 km/h (1 Bft)
13.12.2022 12:54 24,4 C -3,4 C -7,0 C 33 % 76 % 1003 hPa 0,0 l/m 2,8 km/h (1 Bft)
13.12.2022 12:57 24,4 C -3,0 C -7,0 C 33 % 76 % 1003 hPa 0,0 l/m 0,4 km/h (0 Bft)
13.12.2022 13:00 24,4 C -3,0 C -6,9 C 33 % 75 % 1003 hPa 0,0 l/m 0,3 km/h (0 Bft)
13.12.2022 13:03 24,4 C -3,2 C -6,8 C 33 % 75 % 1003 hPa 0,0 l/m 3,4 km/h (1 Bft)
13.12.2022 13:06 24,4 C -3,3 C -7,1 C 33 % 75 % 1003 hPa 0,0 l/m 2,2 km/h (1 Bft)
13.12.2022 13:09 24,4 C -3,3 C -7,3 C 33 % 75 % 1003 hPa 0,0 l/m 0,4 km/h (0 Bft)
13.12.2022 13:12 24,4 C -3,2 C -7,2 C 33 % 75 % 1003 hPa 0,0 l/m 0,3 km/h (0 Bft)
13.12.2022 13:15 24,4 C -3,2 C -7,0 C 33 % 75 % 1003 hPa 0,0 l/m 4,5 km/h (1 Bft)
13.12.2022 13:18 24,4 C -3,1 C -7,1 C 33 % 75 % 1003 hPa 0,0 l/m 4,5 km/h (1 Bft)
13.12.2022 13:21 24,4 C -3,3 C -7,4 C 33 % 74 % 1003 hPa 0,0 l/m 1,2 km/h (1 Bft)
13.12.2022 13:24 24,4 C -3,4 C -7,2 C 34 % 75 % 1003 hPa 0,0 l/m 3,0 km/h (1 Bft)
13.12.2022 13:27 24,4 C -3,3 C -7,0 C 34 % 75 % 1003 hPa 0,0 l/m 3,1 km/h (1 Bft)
13.12.2022 13:30 24,4 C -3,2 C -6,9 C 34 % 75 % 1003 hPa 0,0 l/m 3,1 km/h (1 Bft)
13.12.2022 13:33 24,4 C -3,5 C -6,9 C 34 % 75 % 1003 hPa 0,0 l/m 3,5 km/h (1 Bft)
13.12.2022 13:36 24,3 C -3,6 C -6,7 C 34 % 75 % 1003 hPa 0,0 l/m 3,3 km/h (1 Bft)
13.12.2022 13:39 24,3 C -3,7 C -6,6 C 34 % 76 % 1003 hPa 0,0 l/m 3,5 km/h (1 Bft)
13.12.2022 13:42 24,3 C -3,8 C -6,8 C 34 % 76 % 1003 hPa 0,0 l/m 4,1 km/h (1 Bft)
13.12.2022 13:45 24,3 C -3,7 C -6,8 C 34 % 76 % 1003 hPa 0,0 l/m 4,4 km/h (1 Bft)
13.12.2022 13:48 24,3 C -3,7 C -7,1 C 34 % 76 % 1003 hPa 0,0 l/m 2,8 km/h (1 Bft)
13.12.2022 13:51 24,3 C -3,7 C -7,1 C 34 % 76 % 1003 hPa 0,0 l/m 3,0 km/h (1 Bft)
13.12.2022 13:54 24,3 C -3,8 C -7,3 C 34 % 76 % 1003 hPa 0,0 l/m 0,5 km/h (0 Bft)
13.12.2022 13:57 24,3 C -3,9 C -7,6 C 34 % 76 % 1003 hPa 0,0 l/m 0,3 km/h (0 Bft)
13.12.2022 14:00 24,2 C -4,0 C -7,6 C 34 % 76 % 1003 hPa 0,0 l/m 0,2 km/h (0 Bft)
13.12.2022 14:03 24,2 C -4,0 C -7,6 C 34 % 76 % 1003 hPa 0,0 l/m 0,2 km/h (0 Bft)
13.12.2022 14:06 24,2 C -4,0 C -7,7 C 34 % 76 % 1003 hPa 0,0 l/m 0,0 km/h (0 Bft)
13.12.2022 14:09 24,2 C -4,1 C -7,5 C 34 % 76 % 1003 hPa 0,0 l/m 0,0 km/h (0 Bft)
13.12.2022 14:12 24,3 C -4,2 C -7,9 C 34 % 76 % 1003 hPa 0,0 l/m 0,2 km/h (0 Bft)
13.12.2022 14:15 24,2 C -4,3 C -7,6 C 34 % 77 % 1003 hPa 0,0 l/m 0,0 km/h (0 Bft)
13.12.2022 14:18 24,3 C -4,4 C -7,4 C 34 % 77 % 1003 hPa 0,0 l/m 0,0 km/h (0 Bft)
13.12.2022 14:21 24,2 C -4,4 C -7,0 C 34 % 77 % 1003 hPa 0,0 l/m 0,3 km/h (0 Bft)
13.12.2022 14:24 24,2 C -4,5 C -6,9 C 34 % 77 % 1003 hPa 0,0 l/m 2,9 km/h (1 Bft)
13.12.2022 14:27 24,2 C -4,6 C -6,7 C 34 % 78 % 1003 hPa 0,0 l/m 2,9 km/h (1 Bft)
13.12.2022 14:30 24,2 C -4,6 C -6,7 C 34 % 78 % 1003 hPa 0,0 l/m 0,0 km/h (0 Bft)
13.12.2022 14:33 24,2 C -4,6 C -7,4 C 34 % 78 % 1003 hPa 0,0 l/m 0,0 km/h (0 Bft)
13.12.2022 14:36 24,2 C -4,7 C -7,5 C 34 % 78 % 1003 hPa 0,0 l/m 0,0 km/h (0 Bft)
13.12.2022 14:39 24,2 C -4,8 C -7,5 C 34 % 79 % 1003 hPa 0,0 l/m 0,2 km/h (0 Bft)
13.12.2022 14:42 24,2 C -4,8 C -6,8 C 34 % 79 % 1003 hPa 0,0 l/m 0,0 km/h (0 Bft)
13.12.2022 14:45 24,2 C -4,8 C -6,7 C 34 % 79 % 1003 hPa 0,0 l/m 0,0 km/h (0 Bft)
13.12.2022 14:48 24,1 C -4,9 C -7,3 C 34 % 79 % 1003 hPa 0,0 l/m 0,0 km/h (0 Bft)
13.12.2022 14:51 24,1 C -4,9 C -7,3 C 34 % 79 % 1003 hPa 0,0 l/m 0,0 km/h (0 Bft)
13.12.2022 14:54 24,0 C -5,0 C -6,7 C 33 % 79 % 1003 hPa 0,0 l/m 0,0 km/h (0 Bft)
13.12.2022 14:57 22,3 C -5,0 C -7,0 C 26 % 79 % 1003 hPa 0,0 l/m 0,0 km/h (0 Bft)
13.12.2022 15:00 21,7 C -5,1 C -7,0 C 27 % 79 % 1003 hPa 0,0 l/m 0,0 km/h (0 Bft)
13.12.2022 15:03 21,8 C -5,3 C -6,9 C 28 % 79 % 1003 hPa 0,0 l/m 0,0 km/h (0 Bft)
13.12.2022 15:06 21,8 C -5,3 C -6,9 C 28 % 80 % 1003 hPa 0,0 l/m 0,0 km/h (0 Bft)
13.12.2022 15:09 22,3 C -5,3 C -7,0 C 29 % 80 % 1003 hPa 0,0 l/m 0,0 km/h (0 Bft)
13.12.2022 15:12 22,6 C -5,3 C -7,2 C 29 % 80 % 1003 hPa 0,0 l/m 0,0 km/h (0 Bft)
13.12.2022 15:15 22,8 C -5,4 C -7,2 C 29 % 80 % 1003 hPa 0,0 l/m 0,0 km/h (0 Bft)
13.12.2022 15:18 22,9 C -5,4 C -7,3 C 29 % 80 % 1003 hPa 0,0 l/m 0,0 km/h (0 Bft)
13.12.2022 15:21 23,0 C -5,4 C -6,7 C 29 % 80 % 1003 hPa 0,0 l/m 0,0 km/h (0 Bft)
13.12.2022 15:24 23,2 C -5,4 C -7,0 C 30 % 80 % 1003 hPa 0,0 l/m 0,0 km/h (0 Bft)
13.12.2022 15:27 23,2 C -5,5 C -6,7 C 30 % 80 % 1003 hPa 0,0 l/m 0,0 km/h (0 Bft)
13.12.2022 15:30 23,3 C -5,5 C -6,4 C 30 % 80 % 1003 hPa 0,0 l/m 0,0 km/h (0 Bft)
13.12.2022 15:33 23,4 C -5,5 C -6,8 C 30 % 81 % 1003 hPa 0,0 l/m 0,0 km/h (0 Bft)
13.12.2022 15:36 23,4 C -5,5 C -6,7 C 30 % 81 % 1003 hPa 0,0 l/m 0,0 km/h (0 Bft)
13.12.2022 15:39 23,5 C -5,6 C -7,1 C 31 % 81 % 1003 hPa 0,0 l/m 0,0 km/h (0 Bft)
13.12.2022 15:42 23,5 C -5,6 C -7,2 C 31 % 81 % 1003 hPa 0,0 l/m 0,0 km/h (0 Bft)
13.12.2022 15:45 23,5 C -5,7 C -7,2 C 31 % 81 % 1003 hPa 0,0 l/m 0,0 km/h (0 Bft)
13.12.2022 15:48 23,5 C -5,8 C -7,2 C 31 % 81 % 1003 hPa 0,0 l/m 0,0 km/h (0 Bft)
13.12.2022 15:51 23,4 C -5,9 C -7,2 C 31 % 81 % 1003 hPa 0,0 l/m 0,0 km/h (0 Bft)
13.12.2022 15:54 23,4 C -5,9 C -7,3 C 31 % 81 % 1003 hPa 0,0 l/m 0,0 km/h (0 Bft)
13.12.2022 15:57 23,5 C -5,9 C -7,4 C 31 % 81 % 1003 hPa 0,0 l/m 0,0 km/h (0 Bft)
13.12.2022 16:00 23,5 C -6,0 C -7,4 C 31 % 81 % 1003 hPa 0,0 l/m 0,0 km/h (0 Bft)
13.12.2022 16:03 23,5 C -6,2 C -7,0 C 31 % 81 % 1003 hPa 0,0 l/m 0,0 km/h (0 Bft)
13.12.2022 16:06 23,6 C -6,2 C -7,0 C 32 % 82 % 1003 hPa 0,0 l/m 0,0 km/h (0 Bft)
13.12.2022 16:09 23,6 C -6,3 C -6,8 C 32 % 82 % 1003 hPa 0,0 l/m 0,0 km/h (0 Bft)
13.12.2022 16:12 23,7 C -6,3 C -7,0 C 32 % 82 % 1003 hPa 0,0 l/m 0,0 km/h (0 Bft)
13.12.2022 16:15 23,9 C -6,3 C -7,0 C 32 % 82 % 1003 hPa 0,0 l/m 0,0 km/h (0 Bft)
13.12.2022 16:18 24,0 C -6,4 C -7,0 C 32 % 82 % 1003 hPa 0,0 l/m 0,0 km/h (0 Bft)
13.12.2022 16:21 24,1 C -6,5 C -6,8 C 32 % 83 % 1003 hPa 0,0 l/m 0,0 km/h (0 Bft)
13.12.2022 16:24 24,2 C -6,5 C -7,1 C 32 % 83 % 1003 hPa 0,0 l/m 0,0 km/h (0 Bft)
13.12.2022 16:27 24,3 C -6,6 C -6,9 C 32 % 82 % 1003 hPa 0,0 l/m 0,0 km/h (0 Bft)
13.12.2022 16:30 24,4 C -6,6 C -7,0 C 32 % 82 % 1003 hPa 0,0 l/m 0,0 km/h (0 Bft)
13.12.2022 16:33 24,4 C -6,7 C -6,8 C 32 % 83 % 1003 hPa 0,0 l/m 0,0 km/h (0 Bft)
13.12.2022 16:36 24,4 C -6,7 C -6,6 C 33 % 83 % 1003 hPa 0,0 l/m 0,0 km/h (0 Bft)
13.12.2022 16:39 24,5 C -6,8 C -6,3 C 33 % 83 % 1003 hPa 0,0 l/m 0,0 km/h (0 Bft)
13.12.2022 16:42 24,6 C -6,8 C -6,3 C 33 % 83 % 1003 hPa 0,0 l/m 0,0 km/h (0 Bft)
13.12.2022 16:45 24,6 C -6,8 C -6,2 C 33 % 84 % 1003 hPa 0,0 l/m 0,0 km/h (0 Bft)
13.12.2022 16:48 24,6 C -6,7 C -6,2 C 33 % 84 % 1003 hPa 0,0 l/m 0,0 km/h (0 Bft)
13.12.2022 16:51 24,6 C -6,7 C -6,2 C 33 % 84 % 1003 hPa 0,0 l/m 0,0 km/h (0 Bft)
13.12.2022 16:54 24,6 C -6,7 C -6,5 C 34 % 84 % 1003 hPa 0,0 l/m 0,0 km/h (0 Bft)
13.12.2022 16:57 24,6 C -6,7 C -7,0 C 34 % 84 % 1003 hPa 0,0 l/m 0,0 km/h (0 Bft)
13.12.2022 17:00 24,6 C -6,8 C -7,4 C 34 % 84 % 1003 hPa 0,0 l/m 0,0 km/h (0 Bft)
13.12.2022 17:03 24,6 C -6,8 C -7,4 C 34 % 84 % 1003 hPa 0,0 l/m 0,0 km/h (0 Bft)
13.12.2022 17:06 24,6 C -6,7 C -7,1 C 34 % 84 % 1003 hPa 0,0 l/m 0,0 km/h (0 Bft)
13.12.2022 17:09 24,6 C -6,7 C -6,7 C 34 % 84 % 1003 hPa 0,0 l/m 0,0 km/h (0 Bft)
13.12.2022 17:12 24,6 C -6,8 C -6,5 C 34 % 84 % 1003 hPa 0,0 l/m 0,0 km/h (0 Bft)
13.12.2022 17:15 24,6 C -6,9 C -6,7 C 34 % 84 % 1003 hPa 0,0 l/m 0,0 km/h (0 Bft)
13.12.2022 17:18 24,6 C -6,8 C -7,0 C 34 % 84 % 1003 hPa 0,0 l/m 0,0 km/h (0 Bft)
13.12.2022 17:21 24,5 C -6,8 C -7,0 C 34 % 84 % 1003 hPa 0,0 l/m 0,0 km/h (0 Bft)
13.12.2022 17:24 24,5 C -6,8 C -6,9 C 34 % 84 % 1003 hPa 0,0 l/m 0,0 km/h (0 Bft)
13.12.2022 17:27 24,5 C -6,8 C -6,7 C 34 % 84 % 1003 hPa 0,0 l/m 0,0 km/h (0 Bft)
13.12.2022 17:30 24,4 C -6,8 C -6,3 C 34 % 84 % 1003 hPa 0,0 l/m 0,0 km/h (0 Bft)
13.12.2022 17:33 24,4 C -6,8 C -6,3 C 34 % 84 % 1003 hPa 0,0 l/m 0,0 km/h (0 Bft)
13.12.2022 17:36 24,4 C -6,8 C -6,7 C 35 % 84 % 1003 hPa 0,0 l/m 0,0 km/h (0 Bft)
13.12.2022 17:39 24,5 C -6,8 C -6,7 C 35 % 84 % 1003 hPa 0,0 l/m 0,0 km/h (0 Bft)
13.12.2022 17:42 24,4 C -6,8 C -6,9 C 35 % 84 % 1003 hPa 0,0 l/m 0,0 km/h (0 Bft)
13.12.2022 17:45 24,4 C -6,8 C -7,0 C 35 % 84 % 1003 hPa 0,0 l/m 0,0 km/h (0 Bft)
13.12.2022 17:48 24,4 C -6,8 C -7,2 C 35 % 84 % 1003 hPa 0,0 l/m 0,0 km/h (0 Bft)
13.12.2022 17:51 24,3 C -6,8 C -7,1 C 34 % 84 % 1003 hPa 0,0 l/m 0,0 km/h (0 Bft)
13.12.2022 17:54 24,2 C -6,9 C -7,4 C 34 % 84 % 1003 hPa 0,0 l/m 0,0 km/h (0 Bft)
13.12.2022 17:57 24,2 C -6,9 C -7,2 C 34 % 84 % 1003 hPa 0,0 l/m 0,0 km/h (0 Bft)
13.12.2022 18:00 24,4 C -6,9 C -7,1 C 33 % 84 % 1003 hPa 0,0 l/m 0,0 km/h (0 Bft)
13.12.2022 18:03 24,4 C -6,9 C -7,1 C 34 % 85 % 1003 hPa 0,0 l/m 0,0 km/h (0 Bft)
13.12.2022 18:06 24,6 C -6,9 C -6,9 C 34 % 85 % 1003 hPa 0,0 l/m 0,0 km/h (0 Bft)
13.12.2022 18:09 24,7 C -6,9 C -7,0 C 34 % 85 % 1003 hPa 0,0 l/m 0,0 km/h (0 Bft)
13.12.2022 18:12 24,8 C -6,8 C -7,4 C 34 % 85 % 1003 hPa 0,0 l/m 0,0 km/h (0 Bft)
13.12.2022 18:15 24,8 C -6,8 C -7,5 C 34 % 85 % 1003 hPa 0,0 l/m 0,0 km/h (0 Bft)
13.12.2022 18:18 24,9 C -6,9 C -7,4 C 34 % 85 % 1003 hPa 0,0 l/m 0,0 km/h (0 Bft)
13.12.2022 18:21 24,9 C -6,9 C -7,5 C 34 % 85 % 1003 hPa 0,0 l/m 0,0 km/h (0 Bft)
13.12.2022 18:24 24,9 C -6,9 C -7,6 C 34 % 85 % 1003 hPa 0,0 l/m 0,0 km/h (0 Bft)
13.12.2022 18:27 24,9 C -6,9 C -7,3 C 34 % 85 % 1003 hPa 0,0 l/m 0,0 km/h (0 Bft)
13.12.2022 18:30 24,8 C -6,9 C -7,0 C 34 % 85 % 1003 hPa 0,0 l/m 0,0 km/h (0 Bft)
13.12.2022 18:33 24,8 C -6,9 C -6,6 C 34 % 85 % 1003 hPa 0,0 l/m 0,0 km/h (0 Bft)
13.12.2022 18:36 24,8 C -6,9 C -6,3 C 34 % 85 % 1003 hPa 0,0 l/m 0,0 km/h (0 Bft)
13.12.2022 18:39 24,8 C -6,9 C -6,5 C 34 % 86 % 1003 hPa 0,0 l/m 0,0 km/h (0 Bft)
13.12.2022 18:42 24,8 C -6,9 C -6,5 C 34 % 86 % 1003 hPa 0,0 l/m 0,0 km/h (0 Bft)
13.12.2022 18:45 24,8 C -7,0 C -6,8 C 34 % 85 % 1003 hPa 0,0 l/m 0,0 km/h (0 Bft)
13.12.2022 18:48 24,7 C -7,0 C -7,1 C 34 % 86 % 1003 hPa 0,0 l/m 0,0 km/h (0 Bft)
13.12.2022 18:51 24,7 C -7,0 C -6,6 C 34 % 86 % 1003 hPa 0,0 l/m 0,0 km/h (0 Bft)
13.12.2022 18:54 24,7 C -7,0 C -7,1 C 34 % 86 % 1003 hPa 0,0 l/m 0,0 km/h (0 Bft)
13.12.2022 18:57 24,7 C -7,1 C -7,0 C 34 % 86 % 1003 hPa 0,0 l/m 0,0 km/h (0 Bft)
13.12.2022 19:00 24,7 C -7,1 C -7,0 C 34 % 86 % 1003 hPa 0,0 l/m 0,0 km/h (0 Bft)
13.12.2022 19:03 24,5 C -7,1 C -6,8 C 33 % 86 % 1002 hPa 0,0 l/m 0,0 km/h (0 Bft)
13.12.2022 19:06 24,6 C -7,1 C -6,5 C 33 % 86 % 1002 hPa 0,0 l/m 0,0 km/h (0 Bft)
13.12.2022 19:09 24,5 C -7,1 C -6,8 C 34 % 86 % 1002 hPa 0,0 l/m 0,0 km/h (0 Bft)
13.12.2022 19:12 24,6 C -7,1 C -6,8 C 34 % 86 % 1002 hPa 0,0 l/m 0,0 km/h (0 Bft)
13.12.2022 19:15 24,5 C -7,1 C -6,4 C 34 % 86 % 1002 hPa 0,0 l/m 0,0 km/h (0 Bft)
13.12.2022 19:18 24,5 C -7,1 C -6,6 C 34 % 86 % 1002 hPa 0,0 l/m 0,0 km/h (0 Bft)
13.12.2022 19:21 24,5 C -7,1 C -6,7 C 34 % 86 % 1002 hPa 0,0 l/m 0,0 km/h (0 Bft)
13.12.2022 19:24 24,5 C -7,1 C -6,4 C 34 % 86 % 1002 hPa 0,0 l/m 0,0 km/h (0 Bft)
13.12.2022 19:27 24,5 C -7,2 C -6,5 C 34 % 86 % 1002 hPa 0,0 l/m 0,0 km/h (0 Bft)
13.12.2022 19:30 24,4 C -7,2 C -6,3 C 34 % 86 % 1002 hPa 0,0 l/m 0,0 km/h (0 Bft)
13.12.2022 19:33 24,4 C -7,2 C -6,5 C 34 % 86 % 1002 hPa 0,0 l/m 0,0 km/h (0 Bft)
13.12.2022 19:36 24,5 C -7,2 C -6,7 C 34 % 86 % 1002 hPa 0,0 l/m 0,0 km/h (0 Bft)
13.12.2022 19:39 24,5 C -7,2 C -7,0 C 34 % 86 % 1002 hPa 0,0 l/m 0,0 km/h (0 Bft)
13.12.2022 19:42 24,4 C -7,2 C -7,4 C 34 % 86 % 1002 hPa 0,0 l/m 0,0 km/h (0 Bft)
13.12.2022 19:45 24,4 C -7,2 C -7,3 C 34 % 86 % 1002 hPa 0,0 l/m 0,0 km/h (0 Bft)
13.12.2022 19:48 24,5 C -7,3 C -7,4 C 34 % 86 % 1002 hPa 0,0 l/m 0,0 km/h (0 Bft)
13.12.2022 19:51 24,4 C -7,3 C -7,4 C 34 % 86 % 1002 hPa 0,0 l/m 0,0 km/h (0 Bft)
13.12.2022 19:54 24,4 C -7,4 C -7,2 C 34 % 86 % 1002 hPa 0,0 l/m 0,0 km/h (0 Bft)
13.12.2022 19:57 24,4 C -7,4 C -7,2 C 34 % 86 % 1002 hPa 0,0 l/m 0,0 km/h (0 Bft)
13.12.2022 20:00 24,4 C -7,5 C -7,1 C 34 % 86 % 1002 hPa 0,0 l/m 0,0 km/h (0 Bft)
13.12.2022 20:03 24,5 C -7,5 C -6,8 C 34 % 86 % 1002 hPa 0,0 l/m 0,0 km/h (0 Bft)
13.12.2022 20:06 24,5 C -7,5 C -7,0 C 34 % 86 % 1002 hPa 0,0 l/m 0,0 km/h (0 Bft)
13.12.2022 20:09 24,4 C -7,5 C -7,4 C 34 % 86 % 1002 hPa 0,0 l/m 0,0 km/h (0 Bft)
13.12.2022 20:12 24,5 C -7,6 C -7,3 C 35 % 86 % 1002 hPa 0,0 l/m 0,0 km/h (0 Bft)
13.12.2022 20:15 24,4 C -7,7 C -7,5 C 35 % 86 % 1002 hPa 0,0 l/m 0,0 km/h (0 Bft)
13.12.2022 20:18 24,5 C -7,7 C -7,6 C 35 % 86 % 1002 hPa 0,0 l/m 0,0 km/h (0 Bft)
13.12.2022 20:21 24,4 C -7,9 C -7,8 C 35 % 86 % 1002 hPa 0,0 l/m 0,0 km/h (0 Bft)
13.12.2022 20:24 24,4 C -7,9 C -7,5 C 35 % 86 % 1002 hPa 0,0 l/m 0,0 km/h (0 Bft)
13.12.2022 20:27 24,4 C -8,0 C -7,6 C 35 % 86 % 1002 hPa 0,0 l/m 0,0 km/h (0 Bft)
13.12.2022 20:30 24,4 C -8,1 C -7,6 C 35 % 86 % 1002 hPa 0,0 l/m 2,1 km/h (1 Bft)
13.12.2022 20:33 24,4 C -8,1 C -7,4 C 35 % 86 % 1002 hPa 0,0 l/m 1,8 km/h (1 Bft)
13.12.2022 20:36 24,4 C -8,2 C -7,6 C 35 % 86 % 1002 hPa 0,0 l/m 1,8 km/h (1 Bft)
13.12.2022 20:39 24,4 C -8,3 C -7,5 C 35 % 86 % 1002 hPa 0,0 l/m 0,1 km/h (0 Bft)
13.12.2022 20:42 24,4 C -8,3 C -7,5 C 35 % 86 % 1002 hPa 0,0 l/m 0,3 km/h (0 Bft)
13.12.2022 20:45 24,4 C -8,3 C -7,5 C 35 % 86 % 1002 hPa 0,0 l/m 0,2 km/h (0 Bft)
13.12.2022 20:48 24,4 C -8,4 C -7,8 C 35 % 87 % 1002 hPa 0,0 l/m 0,3 km/h (0 Bft)
13.12.2022 20:51 24,4 C -8,5 C -7,4 C 35 % 87 % 1002 hPa 0,0 l/m 2,2 km/h (1 Bft)
13.12.2022 20:54 24,4 C -8,5 C -6,9 C 35 % 87 % 1002 hPa 0,0 l/m 0,9 km/h (0 Bft)
13.12.2022 20:57 24,3 C -8,5 C -6,9 C 35 % 87 % 1002 hPa 0,0 l/m 3,0 km/h (1 Bft)
13.12.2022 21:00 24,3 C -8,5 C -6,7 C 35 % 87 % 1002 hPa 0,0 l/m 0,0 km/h (0 Bft)
13.12.2022 21:03 24,3 C -8,5 C -6,7 C 35 % 87 % 1002 hPa 0,0 l/m 0,3 km/h (0 Bft)
13.12.2022 21:06 24,3 C -8,5 C -7,1 C 35 % 87 % 1002 hPa 0,0 l/m 0,2 km/h (0 Bft)
13.12.2022 21:09 24,3 C -8,5 C -7,3 C 35 % 87 % 1002 hPa 0,0 l/m 1,3 km/h (1 Bft)
13.12.2022 21:12 24,3 C -8,5 C -7,5 C 35 % 87 % 1002 hPa 0,0 l/m 0,0 km/h (0 Bft)
13.12.2022 21:15 24,3 C -8,5 C -7,7 C 35 % 87 % 1002 hPa 0,0 l/m 0,2 km/h (0 Bft)
13.12.2022 21:18 24,3 C -8,6 C -7,0 C 35 % 87 % 1002 hPa 0,0 l/m 0,0 km/h (0 Bft)
13.12.2022 21:21 24,3 C -8,7 C -7,0 C 35 % 87 % 1002 hPa 0,0 l/m 0,0 km/h (0 Bft)
13.12.2022 21:24 24,2 C -8,7 C -7,1 C 35 % 87 % 1002 hPa 0,0 l/m 0,0 km/h (0 Bft)
13.12.2022 21:27 24,3 C -8,8 C -7,4 C 35 % 87 % 1002 hPa 0,0 l/m 0,0 km/h (0 Bft)
13.12.2022 21:30 24,2 C -8,8 C -7,4 C 35 % 87 % 1002 hPa 0,0 l/m 0,0 km/h (0 Bft)
13.12.2022 21:33 24,2 C -8,8 C -7,0 C 35 % 87 % 1002 hPa 0,0 l/m 0,0 km/h (0 Bft)
13.12.2022 21:36 24,3 C -8,9 C -7,3 C 35 % 87 % 1002 hPa 0,0 l/m 0,0 km/h (0 Bft)
13.12.2022 21:39 24,2 C -8,8 C -7,5 C 35 % 87 % 1002 hPa 0,0 l/m 0,0 km/h (0 Bft)
13.12.2022 21:42 24,2 C -8,9 C -7,5 C 35 % 87 % 1001 hPa 0,0 l/m 0,0 km/h (0 Bft)
13.12.2022 21:45 24,2 C -9,0 C -7,6 C 35 % 87 % 1002 hPa 0,0 l/m 0,0 km/h (0 Bft)
13.12.2022 21:48 24,2 C -9,1 C -8,1 C 35 % 87 % 1001 hPa 0,0 l/m 0,0 km/h (0 Bft)
13.12.2022 21:51 24,2 C -9,1 C -7,4 C 35 % 87 % 1002 hPa 0,0 l/m 0,6 km/h (0 Bft)
13.12.2022 21:54 24,2 C -9,1 C -7,4 C 35 % 87 % 1002 hPa 0,0 l/m 0,0 km/h (0 Bft)
13.12.2022 21:57 24,2 C -9,0 C -7,3 C 35 % 87 % 1002 hPa 0,0 l/m 0,0 km/h (0 Bft)
13.12.2022 22:00 24,2 C -9,1 C -7,6 C 35 % 87 % 1001 hPa 0,0 l/m 0,0 km/h (0 Bft)
13.12.2022 22:03 24,2 C -9,1 C -8,0 C 35 % 87 % 1001 hPa 0,0 l/m 0,3 km/h (0 Bft)
13.12.2022 22:06 24,2 C -9,0 C -8,0 C 35 % 87 % 1001 hPa 0,0 l/m 0,3 km/h (0 Bft)
13.12.2022 22:09 24,2 C -9,0 C -7,9 C 35 % 87 % 1001 hPa 0,0 l/m 3,5 km/h (1 Bft)
13.12.2022 22:12 24,2 C -9,1 C -7,9 C 35 % 87 % 1001 hPa 0,0 l/m 2,0 km/h (1 Bft)
13.12.2022 22:15 24,2 C -9,0 C -8,0 C 35 % 87 % 1001 hPa 0,0 l/m 3,1 km/h (1 Bft)
13.12.2022 22:18 24,2 C -9,0 C -7,7 C 35 % 87 % 1001 hPa 0,0 l/m 2,3 km/h (1 Bft)
13.12.2022 22:21 24,2 C -9,1 C -7,9 C 35 % 87 % 1001 hPa 0,0 l/m 2,8 km/h (1 Bft)
13.12.2022 22:24 24,2 C -9,1 C -7,9 C 35 % 87 % 1001 hPa 0,0 l/m 2,4 km/h (1 Bft)
13.12.2022 22:27 24,1 C -9,1 C -7,6 C 35 % 87 % 1001 hPa 0,0 l/m 0,4 km/h (0 Bft)
13.12.2022 22:30 24,1 C -9,2 C -7,4 C 35 % 87 % 1001 hPa 0,0 l/m 3,0 km/h (1 Bft)
13.12.2022 22:33 24,1 C -9,1 C -7,7 C 35 % 87 % 1001 hPa 0,0 l/m 0,1 km/h (0 Bft)
13.12.2022 22:36 24,1 C -9,1 C -7,5 C 35 % 87 % 1001 hPa 0,0 l/m 0,2 km/h (0 Bft)
13.12.2022 22:39 24,1 C -9,1 C -7,2 C 35 % 87 % 1001 hPa 0,0 l/m 0,0 km/h (0 Bft)
13.12.2022 22:42 24,1 C -9,1 C -6,5 C 35 % 87 % 1001 hPa 0,0 l/m 0,0 km/h (0 Bft)
13.12.2022 22:45 24,1 C -9,1 C -7,2 C 35 % 87 % 1001 hPa 0,0 l/m 0,0 km/h (0 Bft)
13.12.2022 22:48 24,0 C -9,1 C -7,0 C 35 % 87 % 1001 hPa 0,0 l/m 0,0 km/h (0 Bft)
13.12.2022 22:51 24,0 C -9,1 C -6,9 C 35 % 87 % 1001 hPa 0,0 l/m 0,0 km/h (0 Bft)
13.12.2022 22:54 24,0 C -9,1 C -7,3 C 35 % 87 % 1001 hPa 0,0 l/m 0,0 km/h (0 Bft)
13.12.2022 22:57 24,0 C -9,1 C -7,6 C 35 % 87 % 1001 hPa 0,0 l/m 0,0 km/h (0 Bft)
13.12.2022 23:00 24,0 C -9,1 C -7,5 C 35 % 87 % 1001 hPa 0,0 l/m 0,1 km/h (0 Bft)
13.12.2022 23:03 24,0 C -9,2 C -7,6 C 35 % 87 % 1001 hPa 0,0 l/m 0,0 km/h (0 Bft)
13.12.2022 23:06 24,0 C -9,3 C -7,5 C 35 % 87 % 1001 hPa 0,0 l/m 0,0 km/h (0 Bft)
13.12.2022 23:09 24,0 C -9,4 C -7,5 C 35 % 87 % 1001 hPa 0,0 l/m 0,0 km/h (0 Bft)
13.12.2022 23:12 24,0 C -9,4 C -7,4 C 35 % 87 % 1001 hPa 0,0 l/m 0,0 km/h (0 Bft)
13.12.2022 23:15 24,0 C -9,4 C -7,2 C 35 % 87 % 1001 hPa 0,0 l/m 0,0 km/h (0 Bft)
13.12.2022 23:18 24,0 C -9,4 C -7,1 C 35 % 87 % 1001 hPa 0,0 l/m 0,0 km/h (0 Bft)
13.12.2022 23:21 24,0 C -9,4 C -7,1 C 35 % 87 % 1001 hPa 0,0 l/m 0,0 km/h (0 Bft)
13.12.2022 23:24 24,0 C -9,4 C -7,6 C 35 % 87 % 1000 hPa 0,0 l/m 0,0 km/h (0 Bft)
13.12.2022 23:27 24,0 C -9,4 C -7,1 C 35 % 87 % 1000 hPa 0,0 l/m 0,0 km/h (0 Bft)
13.12.2022 23:30 24,0 C -9,4 C -6,4 C 35 % 87 % 1000 hPa 0,0 l/m 0,0 km/h (0 Bft)
13.12.2022 23:33 24,0 C -9,3 C -7,0 C 35 % 87 % 1000 hPa 0,0 l/m 0,0 km/h (0 Bft)
13.12.2022 23:36 24,0 C -9,3 C -7,0 C 35 % 87 % 1000 hPa 0,0 l/m 0,0 km/h (0 Bft)
13.12.2022 23:39 24,0 C -9,3 C -7,0 C 35 % 87 % 1000 hPa 0,0 l/m 0,0 km/h (0 Bft)
13.12.2022 23:42 24,0 C -9,3 C -7,0 C 35 % 87 % 1000 hPa 0,0 l/m 0,0 km/h (0 Bft)
13.12.2022 23:45 24,0 C -9,3 C -7,4 C 35 % 87 % 1000 hPa 0,0 l/m 0,0 km/h (0 Bft)
13.12.2022 23:48 24,0 C -9,3 C -7,1 C 35 % 87 % 1000 hPa 0,0 l/m 0,1 km/h (0 Bft)
13.12.2022 23:51 24,0 C -9,3 C -7,2 C 35 % 87 % 1000 hPa 0,0 l/m 0,0 km/h (0 Bft)
13.12.2022 23:54 23,9 C -9,3 C -7,2 C 35 % 87 % 1000 hPa 0,0 l/m 0,0 km/h (0 Bft)
13.12.2022 23:57 24,0 C -9,3 C -7,4 C 35 % 87 % 1000 hPa 0,0 l/m 0,0 km/h (0 Bft)
_ Min-Zeit 15:00 06:12 21:48 14:57 13:21 23:24 - 00:00
Minimum _ 21,7 C -12,4 C -8,1 C 26 % 74 % 1000 hPa - 0,0 km/h (0 Bft)
_ Max-Zeit 18:18 12:57 07:54 00:00 00:48 00:00 00:00 11:51
Maximum _ 24,9 C -3,0 C -4,2 C 35 % 89 % 1006 hPa 0,0 l/m 7,2 km/h
NO (2 Bft)
Durchschnitt _ 23,9 C -8,4 C -6,3 C 34 % 86 % 1004 hPa #0,0 l/m 0,6 km/h (0 Bft)